Regional Weather Roundup
Issued by NWS Albany, NY

Home | Current Version | Previous Version | Text Only | Print | Product List | Glossary On
Versions: 1 2 3 4 5 6 7 8 9 10 11 12 13 14 15 16 17 18 19 20 21 22 23 24 25 26 27
000
ASUS41 KALY 291410
RWRALY

NEW YORK STATE HOURLY WEATHER ROUNDUP
NATIONAL WEATHER SERVICE ALBANY NY
1000 AM EDT MON MAY 29 2017

NOTE: "FAIR" INDICATES FEW OR NO CLOUDS BELOW 12,000 FEET WITH NO
SIGNIFICANT WEATHER AND/OR NO OBSTRUCTIONS TO VISIBILITY.

NYZ032-033-038>043-046>054-057>066-NYZ062>081-082-084-291500-
EAST


CITY           SKY/WX    TMP DP  RH WIND       PRES   REMARKS
ALBANY         LGT RAIN  56  52  86 SE7       29.94R
GLENS FALLS    LGT RAIN  57  51  80 S5        29.93R
POUGHKEEPSIE   LGT RAIN  56  53  90 CALM      29.92R FOG
NEWBURGH       LGT RAIN  55  55 100 E12       29.94R FOG
MONTGOMERY     RAIN      56  54  93 N7        29.94R FOG
WHITE PLAINS   DRIZZLE   55  52  89 E8        29.92R
ISLIP          LGT RAIN  55  54  96 E12       29.91S
NEW YORK CITY  LGT RAIN  58  53  84 E12       29.91S
CENTRAL PARK   LGT RAIN  57  55  93 VRB7      29.94R
$$

NYZ005>009-017-018-044>046-055-056-291500-
CENTRAL


CITY           SKY/WX    TMP DP  RH WIND       PRES   REMARKS
FULTON         RAIN      57  55  93 SE6       29.81R FOG
SYRACUSE       LGT RAIN  57  54  89 E8        29.82R
ROME           LGT RAIN  54  54 100 E9        29.89S
ELMIRA         LGT RAIN  60  56  86 E6        29.83F FOG
BINGHAMTON     LGT RAIN  52  51  97 S10       29.87R
MONTICELLO     PTSUNNY   54  54 100 E7        29.93F
$$

NYZ026>034-041>043-087-291500-
NORTH


CITY           SKY/WX    TMP DP  RH WIND       PRES   REMARKS
WATERTOWN      LGT RAIN  57  55  93 S14G24    29.77S
FORT DRUM      NOT AVBL
OGDENSBURG     RAIN      58  57  94 S13G21    29.79R
MASSENA        LGT RAIN  61  54  77 SE10      29.81S
SARANAC LAKE   LGT RAIN  55  50  83 S7        29.86R
PLATTSBURGH    CLOUDY    62  51  67 SE15      29.87S
$$

NYZ001>004-010>016-019>021-085-291500-
WEST


CITY           SKY/WX    TMP DP  RH WIND       PRES   REMARKS
NIAGARA FALLS  CLOUDY    65  60  84 SW13      29.76S
BUFFALO        DRZL/FOG  60  58  92 SW16G25   29.78R VSB 1
DUNKIRK        CLOUDY    62  58  86 SW16G28   29.81R
JAMESTOWN      CLOUDY    63  57  82 SW13      29.84R
WELLSVILLE     CLOUDY    63  57  81 SW12      29.85R
ROCHESTER      CLOUDY    65  62  90 SW8       29.77R
PENN YAN       CLOUDY    63  58  83 S5        29.81F
$$

             KEY
       WCI = WIND CHILL INDEX
       VSB = VISIBILITY
       HX  = HEAT INDEX
$$




USA.gov is the U.S. government's official web portal to all federal, state and local government web resources and services.